CES5541 ZSQD-ZYTL

Flight info

Callsign CES5541
Flight time 0h 42m
Altitude 29100
Route TEK81D TEKAM W172 IGDEG W173 NIXEP NIX08A
Aircraft B738/M-SDE2E3FGHIRWXY/LB1

Departure

Time 2026-04-17 05:11
Airport Qingdao Jiaodong International Airport (ZSQD)

Arrival

Time 2026-04-17 05:54
Airport Dalian Zhoushuizi International Airport (ZYTL)
Time Latitude Longitude Altitude Speed Heading
2026-04-17 04:30 36.36378 120.08188 32 ft 0 kts 191°
2026-04-17 05:02 36.36383 120.08189 32 ft 2 kts 191°
2026-04-17 05:03 36.36398 120.08192 32 ft 2 kts 191°
2026-04-17 05:03 36.36412 120.08195 32 ft 2 kts 191°
2026-04-17 05:03 36.36427 120.08199 32 ft 2 kts 191°
2026-04-17 05:03 36.36442 120.08202 32 ft 2 kts 191°
2026-04-17 05:04 36.36456 120.08211 32 ft 2 kts 230°
2026-04-17 05:04 36.36462 120.08227 32 ft 2 kts 264°
2026-04-17 05:04 36.36462 120.08237 32 ft 1 kts 285°
2026-04-17 05:04 36.36460 120.08244 32 ft 0 kts 283°
2026-04-17 05:06 36.36468 120.08205 32 ft 8 kts 282°
2026-04-17 05:06 36.36483 120.08109 30 ft 13 kts 276°
2026-04-17 05:07 36.36465 120.07996 29 ft 14 kts 251°
2026-04-17 05:07 36.36434 120.07880 29 ft 13 kts 252°
2026-04-17 05:07 36.36414 120.07773 30 ft 11 kts 281°
2026-04-17 05:07 36.36481 120.07722 28 ft 12 kts 342°
2026-04-17 05:08 36.36560 120.07690 28 ft 11 kts 342°
2026-04-17 05:08 36.36633 120.07661 28 ft 10 kts 343°
2026-04-17 05:08 36.36724 120.07627 28 ft 16 kts 342°
2026-04-17 05:08 36.36856 120.07575 28 ft 21 kts 343°
2026-04-17 05:09 36.36986 120.07525 28 ft 14 kts 340°
2026-04-17 05:09 36.37071 120.07490 28 ft 12 kts 342°
2026-04-17 05:09 36.37095 120.07419 28 ft 7 kts 255°
2026-04-17 05:09 36.37083 120.07375 28 ft 5 kts 252°
2026-04-17 05:10 36.37072 120.07331 28 ft 4 kts 252°
2026-04-17 05:10 36.37063 120.07295 28 ft 4 kts 252°
2026-04-17 05:10 36.37049 120.07245 28 ft 8 kts 248°
2026-04-17 05:10 36.36990 120.07212 28 ft 12 kts 167°
2026-04-17 05:11 36.36879 120.07255 28 ft 29 kts 162°
2026-04-17 05:11 36.36408 120.07442 31 ft 110 kts 162°
2026-04-17 05:11 36.35451 120.07817 57 ft 172 kts 161°
2026-04-17 05:11 36.34238 120.08267 647 ft 188 kts 161°
2026-04-17 05:12 36.33067 120.08787 1626 ft 182 kts 154°
2026-04-17 05:12 36.32072 120.09807 2065 ft 196 kts 119°
2026-04-17 05:12 36.31669 120.11435 2545 ft 207 kts 98°
2026-04-17 05:12 36.31425 120.13282 2989 ft 225 kts 99°
2026-04-17 05:13 36.31083 120.15216 3524 ft 239 kts 102°
2026-04-17 05:13 36.30664 120.17271 4055 ft 254 kts 102°
2026-04-17 05:13 36.30219 120.19398 4926 ft 255 kts 101°
2026-04-17 05:13 36.29924 120.21542 5745 ft 254 kts 86°
2026-04-17 05:14 36.30260 120.23640 6540 ft 247 kts 59°
2026-04-17 05:14 36.31229 120.25324 7262 ft 245 kts 40°
2026-04-17 05:14 36.32609 120.26666 7732 ft 257 kts 26°
2026-04-17 05:14 36.34269 120.27505 8400 ft 262 kts 15°
2026-04-17 05:15 36.36021 120.28119 9207 ft 264 kts 13°
2026-04-17 05:15 36.37809 120.28728 10002 ft 267 kts 13°
2026-04-17 05:15 36.39601 120.29372 10524 ft 280 kts 14°
2026-04-17 05:15 36.41530 120.30098 11005 ft 294 kts 14°
2026-04-17 05:16 36.43543 120.30867 11427 ft 310 kts 14°
2026-04-17 05:16 36.45667 120.31683 11845 ft 326 kts 14°
2026-04-17 05:16 36.47849 120.32522 12488 ft 335 kts 14°
2026-04-17 05:16 36.50092 120.33386 13249 ft 340 kts 14°
2026-04-17 05:17 36.52369 120.34263 14000 ft 345 kts 13°
2026-04-17 05:17 36.54653 120.35140 14814 ft 349 kts 13°
2026-04-17 05:17 36.57001 120.36043 15526 ft 356 kts 13°
2026-04-17 05:17 36.59417 120.36966 15914 ft 371 kts 13°
2026-04-17 05:18 36.61909 120.37920 16517 ft 380 kts 13°
2026-04-17 05:18 36.64445 120.38895 17271 ft 384 kts 13°
2026-04-17 05:18 36.67036 120.39895 17926 ft 390 kts 13°
2026-04-17 05:18 36.69629 120.40895 18638 ft 394 kts 13°
2026-04-17 05:19 36.72263 120.41912 19292 ft 399 kts 13°
2026-04-17 05:19 36.74941 120.42947 20014 ft 403 kts 13°
2026-04-17 05:19 36.77630 120.43984 20540 ft 411 kts 12°
2026-04-17 05:19 36.80383 120.45046 21268 ft 414 kts 12°
2026-04-17 05:20 36.83128 120.46106 21791 ft 421 kts 12°
2026-04-17 05:20 36.85957 120.47201 22411 ft 425 kts 12°
2026-04-17 05:20 36.88794 120.48296 23038 ft 428 kts 12°
2026-04-17 05:20 36.91627 120.49388 23569 ft 434 kts 12°
2026-04-17 05:21 36.94539 120.50510 24199 ft 437 kts 12°
2026-04-17 05:21 36.97459 120.51633 24709 ft 442 kts 12°
2026-04-17 05:21 37.00406 120.52769 25355 ft 443 kts 12°
2026-04-17 05:21 37.03320 120.53900 26363 ft 435 kts 12°
2026-04-17 05:22 37.06175 120.55014 27280 ft 429 kts 11°
2026-04-17 05:22 37.09006 120.56118 28082 ft 424 kts 11°
2026-04-17 05:22 37.11824 120.57216 28802 ft 420 kts 10°
2026-04-17 05:22 37.14614 120.58297 29043 ft 425 kts 10°
2026-04-17 05:23 37.20249 120.60478 29083 ft 419 kts 10°
2026-04-17 05:23 37.25818 120.62642 29088 ft 419 kts 10°
2026-04-17 05:24 37.31368 120.64799 29091 ft 419 kts 10°
2026-04-17 05:24 37.36972 120.66982 29097 ft 425 kts 11°
2026-04-17 05:25 37.39865 120.68103 29091 ft 436 kts 11°
2026-04-17 05:25 37.42788 120.69235 29092 ft 447 kts 11°
2026-04-17 05:25 37.48880 120.71600 29090 ft 468 kts 12°
2026-04-17 05:26 37.55123 120.74099 29082 ft 476 kts 14°
2026-04-17 05:26 37.61212 120.77666 29082 ft 482 kts 24°
2026-04-17 05:27 37.66899 120.82105 29082 ft 485 kts 28°
2026-04-17 05:27 37.72536 120.86910 29082 ft 487 kts 29°
2026-04-17 05:28 37.78119 120.91733 29086 ft 488 kts 30°
2026-04-17 05:28 37.83707 120.96538 29082 ft 487 kts 29°
2026-04-17 05:29 37.89347 121.01353 29082 ft 485 kts 29°
2026-04-17 05:29 37.94931 121.06104 29033 ft 486 kts 29°
2026-04-17 05:30 37.97750 121.08502 28885 ft 486 kts 29°
2026-04-17 05:30 38.00568 121.10900 28432 ft 486 kts 29°
2026-04-17 05:30 38.03343 121.13264 27787 ft 482 kts 29°
2026-04-17 05:30 38.06100 121.15616 27154 ft 478 kts 29°
2026-04-17 05:31 38.08845 121.17959 26498 ft 477 kts 30°
2026-04-17 05:31 38.11606 121.20315 25830 ft 478 kts 30°
2026-04-17 05:31 38.14370 121.22675 25161 ft 475 kts 30°
2026-04-17 05:31 38.17079 121.24995 24519 ft 470 kts 30°
2026-04-17 05:32 38.19800 121.27327 23868 ft 464 kts 30°
2026-04-17 05:32 38.22422 121.29578 23208 ft 457 kts 30°
2026-04-17 05:32 38.24989 121.31786 22549 ft 436 kts 30°
2026-04-17 05:32 38.27443 121.33905 21900 ft 418 kts 30°
2026-04-17 05:33 38.29807 121.35944 21299 ft 406 kts 30°
2026-04-17 05:33 38.32122 121.37939 20642 ft 403 kts 30°
2026-04-17 05:33 38.34462 121.39950 19991 ft 401 kts 30°
2026-04-17 05:33 38.36768 121.41933 19346 ft 398 kts 30°
2026-04-17 05:34 38.39085 121.43890 18652 ft 395 kts 28°
2026-04-17 05:34 38.41421 121.45615 17904 ft 382 kts 23°
2026-04-17 05:34 38.43800 121.46913 17199 ft 366 kts 17°
2026-04-17 05:34 38.46164 121.47889 16487 ft 352 kts 13°
2026-04-17 05:35 38.48474 121.48698 15778 ft 341 kts 11°
2026-04-17 05:35 38.50750 121.49452 15057 ft 331 kts 12°
2026-04-17 05:35 38.52934 121.50185 14338 ft 324 kts 12°
2026-04-17 05:35 38.55083 121.50931 13619 ft 320 kts 12°
2026-04-17 05:36 38.57220 121.51694 12897 ft 318 kts 13°
2026-04-17 05:36 38.59338 121.52474 12173 ft 315 kts 13°
2026-04-17 05:36 38.61423 121.53259 11453 ft 312 kts 13°
2026-04-17 05:36 38.63463 121.54033 10732 ft 307 kts 13°
2026-04-17 05:37 38.65500 121.54804 9997 ft 304 kts 13°
2026-04-17 05:37 38.67531 121.55568 9300 ft 303 kts 13°
2026-04-17 05:37 38.69571 121.56329 8553 ft 308 kts 12°
2026-04-17 05:37 38.71644 121.57098 7770 ft 313 kts 13°
2026-04-17 05:38 38.73732 121.57876 7037 ft 317 kts 13°
2026-04-17 05:38 38.75867 121.58677 6273 ft 320 kts 13°
2026-04-17 05:38 38.78000 121.59476 5544 ft 323 kts 13°
2026-04-17 05:38 38.80181 121.60281 4765 ft 320 kts 12°
2026-04-17 05:39 38.82325 121.60751 4151 ft 305 kts 359°
2026-04-17 05:39 38.84302 121.60303 3917 ft 276 kts 332°
2026-04-17 05:39 38.85772 121.58921 3920 ft 249 kts 310°
2026-04-17 05:39 38.86724 121.57220 3921 ft 223 kts 297°
2026-04-17 05:40 38.87366 121.55481 3925 ft 212 kts 286°
2026-04-17 05:40 38.87623 121.53639 3965 ft 210 kts 274°
2026-04-17 05:40 38.87703 121.51787 3949 ft 208 kts 272°
2026-04-17 05:40 38.87796 121.49934 3950 ft 208 kts 274°
2026-04-17 05:41 38.87920 121.48086 3938 ft 208 kts 275°
2026-04-17 05:41 38.88055 121.46249 3912 ft 207 kts 275°
2026-04-17 05:41 38.88186 121.44396 3918 ft 206 kts 275°
2026-04-17 05:41 38.88317 121.42579 3946 ft 207 kts 275°
2026-04-17 05:42 38.88451 121.40743 3925 ft 198 kts 275°
2026-04-17 05:42 38.88575 121.39018 3934 ft 191 kts 275°
2026-04-17 05:42 38.88696 121.37309 3926 ft 193 kts 275°
2026-04-17 05:42 38.88816 121.35606 3927 ft 192 kts 275°
2026-04-17 05:43 38.88937 121.33897 3931 ft 193 kts 275°
2026-04-17 05:43 38.89057 121.32189 3924 ft 192 kts 275°
2026-04-17 05:43 38.89177 121.30487 3921 ft 191 kts 275°
2026-04-17 05:43 38.89297 121.28767 3922 ft 191 kts 275°
2026-04-17 05:44 38.89415 121.27081 3925 ft 191 kts 275°
2026-04-17 05:44 38.89534 121.25383 3923 ft 190 kts 275°
2026-04-17 05:44 38.89655 121.23679 3924 ft 191 kts 275°
2026-04-17 05:44 38.89782 121.21976 3917 ft 188 kts 275°
2026-04-17 05:45 38.89904 121.20336 3920 ft 182 kts 275°
2026-04-17 05:45 38.90023 121.18737 3901 ft 184 kts 275°
2026-04-17 05:45 38.90157 121.17093 3671 ft 182 kts 278°
2026-04-17 05:45 38.90575 121.15585 3407 ft 179 kts 302°
2026-04-17 05:46 38.91474 121.14503 3147 ft 180 kts 324°
2026-04-17 05:46 38.92609 121.13816 2937 ft 183 kts 342°
2026-04-17 05:46 38.93897 121.13723 2930 ft 187 kts
2026-04-17 05:46 38.95183 121.13944 2918 ft 188 kts
2026-04-17 05:47 38.96457 121.14384 2913 ft 190 kts 25°
2026-04-17 05:47 38.97425 121.15521 2918 ft 193 kts 59°
2026-04-17 05:47 38.97886 121.17126 2917 ft 193 kts 81°
2026-04-17 05:47 38.97944 121.18863 2919 ft 192 kts 95°
2026-04-17 05:48 38.97849 121.20554 2926 ft 188 kts 95°
2026-04-17 05:48 38.97770 121.22245 2921 ft 187 kts 94°
2026-04-17 05:48 38.97713 121.23909 2918 ft 187 kts 94°
2026-04-17 05:48 38.97660 121.25577 2913 ft 186 kts 94°
2026-04-17 05:49 38.97622 121.27225 2904 ft 177 kts 92°
2026-04-17 05:49 38.97597 121.28748 2942 ft 172 kts 93°
2026-04-17 05:49 38.97567 121.30280 2911 ft 171 kts 93°
2026-04-17 05:49 38.97533 121.31819 2919 ft 172 kts 93°
2026-04-17 05:50 38.97501 121.33346 2919 ft 172 kts 93°
2026-04-17 05:50 38.97394 121.34865 2906 ft 170 kts 102°
2026-04-17 05:50 38.97236 121.36391 2844 ft 171 kts 96°
2026-04-17 05:50 38.97185 121.37892 2509 ft 163 kts 93°
2026-04-17 05:51 38.97158 121.39291 2295 ft 154 kts 95°
2026-04-17 05:51 38.97110 121.40659 2091 ft 154 kts 96°
2026-04-17 05:51 38.97063 121.42014 1835 ft 150 kts 95°
2026-04-17 05:51 38.97025 121.43359 1629 ft 149 kts 96°
2026-04-17 05:52 38.96986 121.44681 1397 ft 146 kts 96°
2026-04-17 05:52 38.96942 121.46005 1187 ft 146 kts 96°
2026-04-17 05:52 38.96904 121.47324 980 ft 146 kts 96°
2026-04-17 05:52 38.96860 121.48618 735 ft 143 kts 96°
2026-04-17 05:53 38.96820 121.49857 544 ft 139 kts 95°
2026-04-17 05:53 38.96783 121.51124 344 ft 144 kts 96°
2026-04-17 05:53 38.96687 121.52353 167 ft 136 kts 101°
2026-04-17 05:53 38.96594 121.53507 114 ft 123 kts 96°
2026-04-17 05:54 38.96519 121.54475 114 ft 89 kts 96°
2026-04-17 05:54 38.96469 121.55104 114 ft 53 kts 95°
2026-04-17 05:54 38.96439 121.55434 114 ft 21 kts 116°
2026-04-17 05:54 38.96394 121.55456 114 ft 1 kts 167°
2026-04-17 05:55 38.96346 121.55462 114 ft 8 kts 184°
2026-04-17 05:55 38.96291 121.55456 114 ft 7 kts 186°
2026-04-17 05:55 38.96244 121.55438 114 ft 6 kts 207°
2026-04-17 05:55 38.96237 121.55396 114 ft 7 kts 281°
2026-04-17 05:56 38.96256 121.55305 114 ft 12 kts 285°
2026-04-17 05:56 38.96267 121.55199 114 ft 11 kts 275°
2026-04-17 05:56 38.96274 121.55101 114 ft 10 kts 275°
2026-04-17 05:56 38.96284 121.55013 114 ft 9 kts 289°
2026-04-17 05:57 38.96310 121.54916 114 ft 14 kts 281°
2026-04-17 05:57 38.96323 121.54759 114 ft 18 kts 274°
2026-04-17 05:57 38.96336 121.54597 114 ft 17 kts 276°
2026-04-17 05:57 38.96347 121.54446 114 ft 16 kts 275°
2026-04-17 05:58 38.96356 121.54317 114 ft 12 kts 274°
2026-04-17 05:58 38.96341 121.54250 114 ft 4 kts 197°
2026-04-17 05:58 38.96315 121.54246 114 ft 3 kts 183°
2026-04-17 05:59 38.96261 121.54243 114 ft 4 kts 182°
2026-04-17 05:59 38.96231 121.54242 114 ft 2 kts 181°
2026-04-17 05:59 38.96228 121.54241 114 ft 0 kts 181°